When you browse on this site, cookies collect data to enhance your experience and personalize the content and advertising you see.
Visit our Privacy Policy to learn more. By continuing to use the site, you agree to this use of cookies and data.
  • en Suisse
  • Liste des pays
  • À 7 jours
  • Température de l'eau
  • Carte satellitaire
  • Carte météo
  • Widgets météo
  • user-avatar
    Se connecter

    Météo par heure à Nadozere

    Ce jour, 23 Janvier, Mercredi

    Heure Température Précipitation Vent Pression Humidité
    00:00 -17°C° 0 mm 2 m/s 758 mmHg 94%
    01:00 -17°C° 0 mm 2 m/s 758 mmHg 94%
    02:00 -16°C° 0 mm 2 m/s 758 mmHg 95%
    03:00 -16°C° 0 mm 2 m/s 757 mmHg 95%
    04:00 -15°C° 0 mm 2 m/s 757 mmHg 96%
    05:00 -15°C° 0 mm 2 m/s 757 mmHg 97%
    06:00 -14°C° 0 mm 2 m/s 757 mmHg 96%
    07:00 -13°C° 0 mm 2 m/s 756 mmHg 96%
    08:00 -12°C° 0 mm 2 m/s 756 mmHg 95%
    09:00 -12°C° 0 mm 3 m/s 756 mmHg 94%
    10:00 -10°C° 0 mm 3 m/s 756 mmHg 93%
    11:00 -9°C° 0 mm 3 m/s 756 mmHg 92%
    12:00 -9°C° 0 mm 3 m/s 756 mmHg 91%
    13:00 -8°C° 0 mm 3 m/s 756 mmHg 90%
    14:00 -8°C° 0 mm 3 m/s 755 mmHg 89%
    15:00 -8°C° 0 mm 3 m/s 755 mmHg 89%
    16:00 -8°C° 0 mm 3 m/s 755 mmHg 89%
    17:00 -8°C° 0 mm 3 m/s 755 mmHg 89%
    18:00 -8°C° 0 mm 3 m/s 755 mmHg 90%
    19:00 -8°C° 0 mm 3 m/s 755 mmHg 90%
    20:00 -8°C° 0 mm 3 m/s 755 mmHg 91%
    21:00 -8°C° 0 mm 3 m/s 755 mmHg 91%
    22:00 -8°C° 0 mm 3 m/s 755 mmHg 91%
    23:00 -8°C° 0 mm 3 m/s 755 mmHg 91%

    Demain, 24 Janvier, Jeudi

    Heure Température Précipitation Vent Pression Humidité
    00:00 -8°C° 0.1 mm 3 m/s 756 mmHg 92%
    01:00 -9°C° 0.1 mm 3 m/s 756 mmHg 93%
    02:00 -9°C° 0.1 mm 3 m/s 756 mmHg 94%
    03:00 -9°C° 0.1 mm 3 m/s 756 mmHg 94%
    04:00 -9°C° 0.1 mm 3 m/s 756 mmHg 95%
    05:00 -8°C° 0.1 mm 2 m/s 756 mmHg 95%
    06:00 -7°C° 0 mm 2 m/s 756 mmHg 95%
    07:00 -7°C° 0 mm 2 m/s 757 mmHg 96%
    08:00 -6°C° 0 mm 1 m/s 757 mmHg 96%
    09:00 -4°C° 0 mm 1 m/s 758 mmHg 96%
    10:00 -4°C° 0 mm 1 m/s 758 mmHg 95%
    11:00 -3°C° 0 mm 1 m/s 759 mmHg 94%
    12:00 -3°C° 0 mm 1 m/s 759 mmHg 93%
    13:00 -3°C° 0 mm 1 m/s 759 mmHg 91%
    14:00 -4°C° 0 mm 1 m/s 760 mmHg 90%
    15:00 -7°C° 0 mm 2 m/s 760 mmHg 92%
    16:00 -9°C° 0 mm 2 m/s 760 mmHg 94%
    17:00 -10°C° 0 mm 2 m/s 761 mmHg 95%
    18:00 -12°C° 0 mm 2 m/s 761 mmHg 95%
    19:00 -13°C° 0 mm 2 m/s 762 mmHg 94%
    20:00 -14°C° 0 mm 2 m/s 762 mmHg 93%
    21:00 -14°C° 0 mm 2 m/s 762 mmHg 92%
    22:00 -15°C° 0 mm 2 m/s 763 mmHg 91%
    23:00 -15°C° 0 mm 2 m/s 763 mmHg 90%

    Après-demain, 25 Janvier, Vendredi

    Heure Température Précipitation Vent Pression Humidité
    00:00 -15°C° 0 mm 2 m/s 764 mmHg 89%
    01:00 -16°C° 0 mm 2 m/s 764 mmHg 87%
    02:00 -16°C° 0 mm 2 m/s 764 mmHg 86%
    03:00 -16°C° 0 mm 2 m/s 764 mmHg 85%
    04:00 -16°C° 0 mm 2 m/s 764 mmHg 85%
    05:00 -16°C° 0 mm 2 m/s 764 mmHg 84%
    06:00 -16°C° 0 mm 2 m/s 765 mmHg 84%
    07:00 -17°C° 0 mm 2 m/s 765 mmHg 84%
    08:00 -17°C° 0 mm 2 m/s 765 mmHg 84%
    09:00 -16°C° 0 mm 2 m/s 765 mmHg 82%
    10:00 -15°C° 0 mm 2 m/s 766 mmHg 81%
    11:00 -14°C° 0 mm 2 m/s 766 mmHg 79%
    12:00 -14°C° 0 mm 2 m/s 766 mmHg 79%
    13:00 -13°C° 0 mm 2 m/s 766 mmHg 79%
    14:00 -12°C° 0 mm 2 m/s 766 mmHg 79%
    15:00 -13°C° 0 mm 2 m/s 766 mmHg 82%
    16:00 -14°C° 0 mm 2 m/s 765 mmHg 85%
    17:00 -15°C° 0 mm 2 m/s 765 mmHg 87%
    18:00 -15°C° 0 mm 2 m/s 765 mmHg 86%
    19:00 -15°C° 0 mm 2 m/s 765 mmHg 85%
    20:00 -15°C° 0 mm 2 m/s 765 mmHg 83%
    21:00 -15°C° 0 mm 2 m/s 765 mmHg 83%
    22:00 -15°C° 0 mm 2 m/s 765 mmHg 83%
    23:00 -16°C° 0 mm 3 m/s 765 mmHg 83%

    26 Janvier, Samedi

    Heure Température Précipitation Vent Pression Humidité
    00:00 -16°C° 0 mm 3 m/s 764 mmHg 82%
    01:00 -16°C° 0 mm 3 m/s 764 mmHg 82%
    02:00 -16°C° 0 mm 3 m/s 763 mmHg 82%
    03:00 -16°C° 0 mm 3 m/s 762 mmHg 81%
    04:00 -16°C° 0 mm 3 m/s 762 mmHg 81%
    05:00 -16°C° 0 mm 3 m/s 761 mmHg 81%
    06:00 -17°C° 0 mm 4 m/s 760 mmHg 81%
    07:00 -17°C° 0 mm 4 m/s 760 mmHg 80%
    08:00 -17°C° 0 mm 4 m/s 759 mmHg 80%
    09:00 -17°C° 0 mm 4 m/s 759 mmHg 80%
    10:00 -17°C° 0 mm 4 m/s 758 mmHg 80%
    11:00 -17°C° 0 mm 4 m/s 758 mmHg 80%
    12:00 -16°C° 0.2 mm 4 m/s 757 mmHg 83%
    13:00 -16°C° 0.2 mm 4 m/s 756 mmHg 86%
    14:00 -16°C° 0.2 mm 4 m/s 755 mmHg 89%
    15:00 -16°C° 0.3 mm 4 m/s 755 mmHg 89%
    16:00 -16°C° 0.3 mm 4 m/s 754 mmHg 90%
    17:00 -15°C° 0.3 mm 4 m/s 753 mmHg 90%
    18:00 -15°C° 0.2 mm 4 m/s 753 mmHg 90%
    19:00 -15°C° 0.2 mm 4 m/s 753 mmHg 89%
    20:00 -15°C° 0.2 mm 4 m/s 752 mmHg 89%
    21:00 -14°C° 0.1 mm 3 m/s 752 mmHg 89%
    22:00 -14°C° 0.1 mm 3 m/s 752 mmHg 89%
    23:00 -15°C° 0.1 mm 3 m/s 751 mmHg 89%

    27 Janvier, Dimanche

    Heure Température Précipitation Vent Pression Humidité
    00:00 -15°C° 0.1 mm 3 m/s 751 mmHg 90%
    01:00 -15°C° 0.1 mm 3 m/s 751 mmHg 91%
    02:00 -14°C° 0.1 mm 2 m/s 751 mmHg 92%
    03:00 -14°C° 0 mm 2 m/s 751 mmHg 92%
    04:00 -15°C° 0 mm 3 m/s 750 mmHg 92%
    05:00 -15°C° 0 mm 3 m/s 750 mmHg 92%
    06:00 -15°C° 0 mm 3 m/s 750 mmHg 92%
    07:00 -15°C° 0 mm 3 m/s 750 mmHg 92%
    08:00 -15°C° 0 mm 3 m/s 750 mmHg 92%
    09:00 -14°C° 0 mm 3 m/s 750 mmHg 91%
    10:00 -14°C° 0 mm 3 m/s 750 mmHg 90%
    11:00 -14°C° 0 mm 4 m/s 750 mmHg 89%
    12:00 -14°C° 0.1 mm 4 m/s 750 mmHg 89%
    13:00 -14°C° 0.1 mm 4 m/s 750 mmHg 89%
    14:00 -12°C° 0.1 mm 4 m/s 749 mmHg 89%
    15:00 -12°C° 0.2 mm 4 m/s 749 mmHg 90%
    16:00 -12°C° 0.2 mm 4 m/s 749 mmHg 90%
    17:00 -12°C° 0.2 mm 4 m/s 749 mmHg 91%
    18:00 -12°C° 0.2 mm 4 m/s 749 mmHg 91%
    19:00 -12°C° 0.2 mm 4 m/s 749 mmHg 91%
    20:00 -11°C° 0.2 mm 4 m/s 749 mmHg 91%
    21:00 -11°C° 0.2 mm 4 m/s 749 mmHg 91%
    22:00 -9°C° 0.2 mm 3 m/s 750 mmHg 91%
    23:00 -9°C° 0.2 mm 3 m/s 750 mmHg 92%

    28 Janvier, Lundi

    Heure Température Précipitation Vent Pression Humidité
    00:00 -8°C° 0.2 mm 3 m/s 750 mmHg 92%
    01:00 -7°C° 0.2 mm 3 m/s 750 mmHg 93%
    02:00 -7°C° 0.2 mm 3 m/s 750 mmHg 93%
    03:00 -7°C° 0.1 mm 3 m/s 750 mmHg 93%
    04:00 -6°C° 0.1 mm 3 m/s 750 mmHg 94%
    05:00 -5°C° 0.1 mm 2 m/s 750 mmHg 94%
    06:00 -5°C° 0 mm 2 m/s 751 mmHg 94%
    07:00 -5°C° 0 mm 2 m/s 751 mmHg 95%
    08:00 -4°C° 0 mm 2 m/s 751 mmHg 95%
    09:00 -4°C° 0 mm 2 m/s 752 mmHg 94%
    10:00 -3°C° 0 mm 2 m/s 752 mmHg 94%
    11:00 -3°C° 0 mm 2 m/s 752 mmHg 93%
    12:00 -2°C° 0.1 mm 2 m/s 753 mmHg 93%
    13:00 -2°C° 0.1 mm 2 m/s 753 mmHg 93%
    14:00 -1°C° 0.1 mm 2 m/s 753 mmHg 93%
    15:00 -2°C° 0.1 mm 2 m/s 753 mmHg 94%
    16:00 0°C° 0.1 mm 1 m/s 754 mmHg 95%
    17:00 0°C° 0.1 mm 1 m/s 754 mmHg 96%
    18:00 0°C° 0.1 mm 1 m/s 754 mmHg 96%
    19:00 0°C° 0.1 mm 1 m/s 754 mmHg 97%
    20:00 0°C° 0.1 mm 1 m/s 754 mmHg 97%
    21:00 0°C° 0.1 mm 1 m/s 755 mmHg 97%
    22:00 0°C° 0.1 mm 1 m/s 755 mmHg 97%
    23:00 -2°C° 0.1 mm 2 m/s 755 mmHg 97%
    Voir plus